Location: *
(28.3744°N, 81.5492°W)
Time: 15:06:43
(UTC+00:00)

CZ-2D R/B - Pass Details

Date: 15 June 2025
Orbit: 789 x 842 km, 98.8° (Epoch: 16 July)

Event Time Altitude Azimuth Distance (km) Brightness Sun altitude
Rises 08:46:36 0° 352° (N) 3,363 5.8 -19.4°
Reaches altitude 10° 08:49:35 10° 336° (NNW) 2,418 4.8 -18.9°
Maximum altitude 08:53:15 19° 292° (WNW) 1,844 3.7 -18.3°
Enters shadow 08:54:16 18° 277° (W) 1,890 3.6 -18.1°
